{"data":{"norad_id":61256,"epoch":"2026-09-21T18:37:57.704448Z","epoch_age_seconds":81825,"freshness":"FRESH","line1":"1 61256U 24175P   26264.77636232 -.00000372  00000+0  10739-6 0  9993","line2":"2 61256  53.1608 359.8118 0001083 102.1519 257.9605 15.34392353111523","mean_motion":15.34392353,"eccentricity":0.0001083,"inclination_deg":53.1608,"raan_deg":359.8118,"arg_perigee_deg":102.1519,"mean_anomaly_deg":257.9605,"bstar":1.0739e-7,"rev_number":11152,"period_min":93.848225793393,"perigee_km":461.98510333751,"apogee_km":463.46683425655,"semimajor_km":6840.862968797,"source":"CELESTRAK","updated_at":"2026-09-22T09:00:49.350609Z"}}